Time,TemperatureF,DewpointF,PressureIn,WindDirection,WindDirectionDegrees,WindSpeedMPH,WindSpeedGustMPH,Humidity,HourlyPrecipIn,Conditions,Clouds,dailyrainin,SoftwareType,DateUTC
2013-04-23 00:02:00,75.0,37.0,29.69,West,269,0.0,6.0,25,0.00,,,0.00,,2013-04-23 07:02:00,
2013-04-23 00:11:00,75.0,37.0,29.69,West,269,0.0,6.0,25,0.00,,,0.00,,2013-04-23 07:11:00,
2013-04-23 00:21:00,74.0,36.0,29.69,West,269,0.0,2.0,25,0.00,,,0.00,,2013-04-23 07:21:00,
2013-04-23 00:32:00,72.0,38.0,29.69,West,269,0.0,1.0,29,0.00,,,0.00,,2013-04-23 07:32:00,
2013-04-23 00:41:00,72.0,38.0,29.69,West,269,0.0,1.0,29,0.00,,,0.00,,2013-04-23 07:41:00,
2013-04-23 00:52:00,71.0,35.0,29.69,WSW,240,0.0,3.0,27,0.00,,,0.00,,2013-04-23 07:52:00,
2013-04-23 01:01:00,72.0,34.0,29.68,SSW,211,0.0,2.0,25,0.00,,,0.00,,2013-04-23 08:01:00,
2013-04-23 01:11:00,72.0,34.0,29.68,SSW,211,0.0,2.0,25,0.00,,,0.00,,2013-04-23 08:11:00,
2013-04-23 01:21:00,73.0,36.0,29.68,SSW,207,0.0,3.0,26,0.00,,,0.00,,2013-04-23 08:21:00,
2013-04-23 01:31:00,70.0,38.0,29.68,ESE,121,0.0,0.0,31,0.00,,,0.00,,2013-04-23 08:31:00,
2013-04-23 01:42:00,70.0,38.0,29.68,ESE,121,0.0,0.0,31,0.00,,,0.00,,2013-04-23 08:42:00,
2013-04-23 01:52:00,69.0,39.0,29.69,North,0,0.0,0.0,33,0.00,,,0.00,,2013-04-23 08:52:00,
2013-04-23 02:01:00,68.0,39.0,29.68,North,0,0.0,0.0,35,0.00,,,0.00,,2013-04-23 09:01:00,
2013-04-23 02:11:00,68.0,39.0,29.68,North,0,0.0,0.0,35,0.00,,,0.00,,2013-04-23 09:11:00,
2013-04-23 02:21:00,67.0,38.0,29.68,NNE,13,0.0,0.0,35,0.00,,,0.00,,2013-04-23 09:21:00,
2013-04-23 02:32:00,67.0,38.0,29.68,NNE,12,0.0,0.0,35,0.00,,,0.00,,2013-04-23 09:32:00,
2013-04-23 02:42:00,67.0,38.0,29.68,NNE,12,0.0,0.0,35,0.00,,,0.00,,2013-04-23 09:42:00,
2013-04-23 02:52:00,66.0,38.0,29.68,North,0,0.0,0.0,35,0.00,,,0.00,,2013-04-23 09:52:00,
2013-04-23 03:02:00,67.0,36.0,29.68,ESE,103,0.0,0.0,32,0.00,,,0.00,,2013-04-23 10:02:00,
2013-04-23 03:12:00,67.0,36.0,29.68,ESE,103,0.0,0.0,32,0.00,,,0.00,,2013-04-23 10:12:00,
2013-04-23 03:22:00,68.0,37.0,29.67,ESE,103,0.0,1.0,32,0.00,,,0.00,,2013-04-23 10:22:00,
2013-04-23 03:32:00,69.0,37.0,29.67,ESE,122,0.0,3.0,31,0.00,,,0.00,,2013-04-23 10:32:00,
2013-04-23 03:42:00,69.0,37.0,29.67,ESE,122,0.0,3.0,31,0.00,,,0.00,,2013-04-23 10:42:00,
2013-04-23 03:52:00,69.0,38.0,29.67,ESE,123,1.0,3.0,32,0.00,,,0.00,,2013-04-23 10:52:00,
2013-04-23 04:02:00,69.0,39.0,29.67,SE,125,0.0,3.0,33,0.00,,,0.00,,2013-04-23 11:02:00,
2013-04-23 04:11:00,69.0,39.0,29.67,SE,136,0.0,2.0,33,0.00,,,0.00,,2013-04-23 11:11:00,
2013-04-23 04:21:00,69.0,39.0,29.67,SE,136,0.0,2.0,33,0.00,,,0.00,,2013-04-23 11:21:00,
2013-04-23 04:32:00,69.0,39.0,29.67,SE,143,1.0,7.0,34,0.00,,,0.00,,2013-04-23 11:32:00,
2013-04-23 04:42:00,69.0,39.0,29.67,SSE,150,0.0,5.0,34,0.00,,,0.00,,2013-04-23 11:42:00,
2013-04-23 04:52:00,69.0,39.0,29.67,SSE,150,0.0,5.0,34,0.00,,,0.00,,2013-04-23 11:52:00,
2013-04-23 05:02:00,69.0,38.0,29.68,WSW,257,0.0,5.0,32,0.00,,,0.00,,2013-04-23 12:02:00,
2013-04-23 05:12:00,69.0,38.0,29.68,WSW,257,0.0,5.0,32,0.00,,,0.00,,2013-04-23 12:12:00,
2013-04-23 05:22:00,69.0,39.0,29.69,WSW,257,0.0,0.0,34,0.00,,,0.00,,2013-04-23 12:22:00,
2013-04-23 05:32:00,66.0,38.0,29.69,WNW,303,0.0,0.0,36,0.00,,,0.00,,2013-04-23 12:32:00,
2013-04-23 05:41:00,66.0,38.0,29.69,WNW,303,0.0,0.0,36,0.00,,,0.00,,2013-04-23 12:41:00,
2013-04-23 05:51:00,65.0,39.0,29.69,WNW,289,0.0,1.0,39,0.00,,,0.00,,2013-04-23 12:51:00,
2013-04-23 06:01:00,64.0,42.0,29.70,WNW,289,0.0,0.0,44,0.00,,,0.00,,2013-04-23 13:01:00,
2013-04-23 06:11:00,64.0,42.0,29.70,WNW,289,0.0,0.0,44,0.00,,,0.00,,2013-04-23 13:11:00,
2013-04-23 06:21:00,63.0,41.0,29.71,WNW,289,0.0,0.0,44,0.00,,,0.00,,2013-04-23 13:21:00,
2013-04-23 06:32:00,62.0,40.0,29.72,WNW,288,0.0,0.0,45,0.00,,,0.00,,2013-04-23 13:32:00,
2013-04-23 06:41:00,62.0,40.0,29.72,WNW,288,0.0,0.0,45,0.00,,,0.00,,2013-04-23 13:41:00,
2013-04-23 06:52:00,62.0,40.0,29.73,WNW,289,0.0,0.0,45,0.00,,,0.00,,2013-04-23 13:52:00,
2013-04-23 07:01:00,63.0,40.0,29.74,WNW,289,0.0,0.0,43,0.00,,,0.00,,2013-04-23 14:01:00,
2013-04-23 07:11:00,63.0,40.0,29.74,WNW,289,0.0,0.0,43,0.00,,,0.00,,2013-04-23 14:11:00,
2013-04-23 07:22:00,64.0,40.0,29.75,WNW,289,0.0,0.0,41,0.00,,,0.00,,2013-04-23 14:22:00,
2013-04-23 07:31:00,66.0,40.0,29.75,WNW,289,0.0,0.0,38,0.00,,,0.00,,2013-04-23 14:31:00,
2013-04-23 07:41:00,66.0,40.0,29.75,WNW,289,0.0,0.0,38,0.00,,,0.00,,2013-04-23 14:41:00,
2013-04-23 07:52:00,67.0,39.0,29.75,WNW,288,0.0,0.0,36,0.00,,,0.00,,2013-04-23 14:52:00,
2013-04-23 08:01:00,67.0,39.0,29.75,WNW,288,0.0,0.0,36,0.00,,,0.00,,2013-04-23 15:01:00,
2013-04-23 08:11:00,68.0,41.0,29.77,WNW,289,0.0,0.0,38,0.00,,,0.00,,2013-04-23 15:11:00,
2013-04-23 08:21:00,69.0,44.0,29.77,WNW,296,0.0,1.0,40,0.00,,,0.00,,2013-04-23 15:21:00,
2013-04-23 08:32:00,71.0,49.0,29.78,WNW,302,0.0,1.0,45,0.00,,,0.00,,2013-04-23 15:32:00,
2013-04-23 08:42:00,71.0,49.0,29.78,WNW,302,0.0,1.0,45,0.00,,,0.00,,2013-04-23 15:42:00,
2013-04-23 08:52:00,72.0,49.0,29.78,NW,323,1.0,3.0,45,0.00,,,0.00,,2013-04-23 15:52:00,
2013-04-23 09:02:00,74.0,48.0,29.79,WNW,291,0.0,1.0,40,0.00,,,0.00,,2013-04-23 16:02:00,
2013-04-23 09:12:00,74.0,48.0,29.79,WNW,291,0.0,1.0,40,0.00,,,0.00,,2013-04-23 16:12:00,
2013-04-23 09:33:00,77.0,46.0,29.80,WSW,248,0.0,1.0,34,0.00,,,0.00,,2013-04-23 16:33:00,
2013-04-23 09:42:00,77.0,46.0,29.80,WSW,248,0.0,1.0,34,0.00,,,0.00,,2013-04-23 16:42:00,
2013-04-23 09:52:00,78.0,44.0,29.80,WNW,291,0.0,1.0,30,0.00,,,0.00,,2013-04-23 16:52:00,
2013-04-23 10:02:00,81.0,43.0,29.80,West,279,0.0,9.0,26,0.00,,,0.00,,2013-04-23 17:02:00,
2013-04-23 10:11:00,81.0,43.0,29.80,West,279,0.0,9.0,26,0.00,,,0.00,,2013-04-23 17:11:00,
2013-04-23 10:32:00,85.0,39.0,29.80,NW,314,5.0,13.0,20,0.00,,,0.00,,2013-04-23 17:32:00,
2013-04-23 10:42:00,85.0,39.0,29.80,NW,314,5.0,13.0,20,0.00,,,0.00,,2013-04-23 17:42:00,
2013-04-23 10:53:00,86.0,38.0,29.81,North,9,5.0,16.0,18,0.00,,,0.00,,2013-04-23 17:53:00,
2013-04-23 11:01:00,87.0,35.0,29.81,NW,322,3.0,14.0,16,0.00,,,0.00,,2013-04-23 18:01:00,
2013-04-23 11:12:00,87.0,35.0,29.81,NW,322,3.0,14.0,16,0.00,,,0.00,,2013-04-23 18:12:00,
2013-04-23 11:22:00,87.0,35.0,29.80,NNW,334,5.0,13.0,16,0.00,,,0.00,,2013-04-23 18:22:00,
2013-04-23 11:32:00,88.0,35.0,29.80,NW,322,6.0,18.0,15,0.00,,,0.00,,2013-04-23 18:32:00,
2013-04-23 11:52:00,89.0,35.0,29.79,NNW,329,4.0,16.0,15,0.00,,,0.00,,2013-04-23 18:52:00,
2013-04-23 12:02:00,90.0,34.0,29.79,NW,324,5.0,20.0,14,0.00,,,0.00,,2013-04-23 19:02:00,
2013-04-23 12:21:00,90.0,34.0,29.79,North,353,5.0,21.0,14,0.00,,,0.00,,2013-04-23 19:21:00,
2013-04-23 12:32:00,91.0,35.0,29.78,NNE,17,5.0,12.0,14,0.00,,,0.00,,2013-04-23 19:32:00,
2013-04-23 12:51:00,92.0,34.0,29.78,North,355,6.0,17.0,13,0.00,,,0.00,,2013-04-23 19:51:00,
2013-04-23 13:01:00,91.0,33.0,29.78,North,355,6.0,13.0,13,0.00,,,0.00,,2013-04-23 20:01:00,
2013-04-23 13:21:00,92.0,34.0,29.77,NW,326,3.0,16.0,13,0.00,,,0.00,,2013-04-23 20:21:00,
2013-04-23 13:31:00,93.0,35.0,29.77,North,0,3.0,12.0,13,0.00,,,0.00,,2013-04-23 20:31:00,
2013-04-23 13:51:00,92.0,36.0,29.76,NW,317,5.0,14.0,14,0.00,,,0.00,,2013-04-23 20:51:00,
2013-04-23 14:01:00,93.0,33.0,29.76,NE,34,5.0,20.0,12,0.00,,,0.00,,2013-04-23 21:01:00,
2013-04-23 14:21:00,93.0,35.0,29.76,NW,324,5.0,12.0,13,0.00,,,0.00,,2013-04-23 21:21:00,
2013-04-23 14:32:00,94.0,36.0,29.75,NNW,327,4.0,13.0,13,0.00,,,0.00,,2013-04-23 21:32:00,
2013-04-23 14:52:00,94.0,36.0,29.75,NNW,338,6.0,17.0,13,0.00,,,0.00,,2013-04-23 21:52:00,
2013-04-23 15:02:00,94.0,36.0,29.74,NNW,334,3.0,15.0,13,0.00,,,0.00,,2013-04-23 22:02:00,
2013-04-23 15:22:00,94.0,36.0,29.73,NW,307,2.0,15.0,13,0.00,,,0.00,,2013-04-23 22:22:00,
2013-04-23 15:32:00,94.0,36.0,29.72,NW,325,2.0,10.0,13,0.00,,,0.00,,2013-04-23 22:32:00,
2013-04-23 15:52:00,94.0,36.0,29.72,NNW,333,3.0,13.0,13,0.00,,,0.00,,2013-04-23 22:52:00,
2013-04-23 16:02:00,94.0,34.0,29.71,NNW,348,4.0,13.0,12,0.00,,,0.00,,2013-04-23 23:02:00,
2013-04-23 16:21:00,94.0,36.0,29.71,NW,311,3.0,14.0,13,0.00,,,0.00,,2013-04-23 23:21:00,
2013-04-23 16:31:00,93.0,35.0,29.71,NW,312,2.0,14.0,13,0.00,,,0.00,,2013-04-23 23:31:00,
2013-04-23 16:41:00,93.0,37.0,29.70,NNE,13,3.0,14.0,14,0.00,,,0.00,,2013-04-23 23:41:00,
2013-04-23 17:01:00,93.0,37.0,29.70,WNW,294,2.0,10.0,14,0.00,,,0.00,,2013-04-24 00:01:00,
2013-04-23 17:21:00,93.0,33.0,29.70,NW,321,3.0,9.0,12,0.00,,,0.00,,2013-04-24 00:21:00,
2013-04-23 17:32:00,92.0,36.0,29.70,NNW,338,2.0,10.0,14,0.00,,,0.00,,2013-04-24 00:32:00,
2013-04-23 17:51:00,91.0,39.0,29.70,NW,316,3.0,13.0,16,0.00,,,0.00,,2013-04-24 00:51:00,
2013-04-23 18:01:00,90.0,39.0,29.70,NW,320,2.0,9.0,17,0.00,,,0.00,,2013-04-24 01:01:00,
2013-04-23 18:31:00,88.0,41.0,29.71,NNW,338,1.0,5.0,19,0.00,,,0.00,,2013-04-24 01:31:00,
2013-04-23 18:52:00,87.0,40.0,29.71,NW,311,2.0,5.0,19,0.00,,,0.00,,2013-04-24 01:52:00,
2013-04-23 19:02:00,85.0,37.0,29.71,NW,314,0.0,5.0,18,0.00,,,0.00,,2013-04-24 02:02:00,
2013-04-23 19:11:00,85.0,38.0,29.71,NNW,327,0.0,3.0,19,0.00,,,0.00,,2013-04-24 02:11:00,
2013-04-23 19:34:00,83.0,35.0,29.71,NNW,338,0.0,2.0,18,0.00,,,0.00,,2013-04-24 02:34:00,
2013-04-23 19:52:00,82.0,36.0,29.72,NNW,338,0.0,0.0,19,0.00,,,0.00,,2013-04-24 02:52:00,
2013-04-23 20:03:00,81.0,32.0,29.72,NNW,338,0.0,0.0,17,0.00,,,0.00,,2013-04-24 03:03:00,
2013-04-23 20:22:00,80.0,31.0,29.72,NNW,338,0.0,0.0,17,0.00,,,0.00,,2013-04-24 03:22:00,
2013-04-23 20:35:00,79.0,30.0,29.73,NNW,338,0.0,0.0,17,0.00,,,0.00,,2013-04-24 03:35:00,
2013-04-23 20:53:00,79.0,30.0,29.73,NNW,338,0.0,0.0,17,0.00,,,0.00,,2013-04-24 03:53:00,
2013-04-23 21:02:00,78.0,30.0,29.74,NNW,338,0.0,0.0,17,0.00,,,0.00,,2013-04-24 04:02:00,
2013-04-23 21:22:00,77.0,26.0,29.74,NNW,338,0.0,0.0,15,0.00,,,0.00,,2013-04-24 04:22:00,
2013-04-23 21:33:00,78.0,25.0,29.75,NNW,338,0.0,0.0,14,0.00,,,0.00,,2013-04-24 04:33:00,
2013-04-23 21:43:00,78.0,25.0,29.75,NNW,338,0.0,0.0,14,0.00,,,0.00,,2013-04-24 04:43:00,
2013-04-23 21:52:00,78.0,25.0,29.75,NNW,338,0.0,0.0,14,0.00,,,0.00,,2013-04-24 04:52:00,
2013-04-23 22:02:00,77.0,22.0,29.75,NNW,338,0.0,0.0,13,0.00,,,0.00,,2013-04-24 05:02:00,
2013-04-23 22:21:00,77.0,22.0,29.75,NNW,338,0.0,0.0,13,0.00,,,0.00,,2013-04-24 05:21:00,
2013-04-23 22:32:00,76.0,22.0,29.75,NNW,338,0.0,0.0,13,0.00,,,0.00,,2013-04-24 05:32:00,
2013-04-23 22:51:00,76.0,22.0,29.75,NNW,338,0.0,0.0,13,0.00,,,0.00,,2013-04-24 05:51:00,
2013-04-23 23:02:00,75.0,21.0,29.75,NNW,338,0.0,0.0,13,0.00,,,0.00,,2013-04-24 06:02:00,
2013-04-23 23:11:00,75.0,21.0,29.75,NNW,338,0.0,0.0,13,0.00,,,0.00,,2013-04-24 06:11:00,
2013-04-23 23:21:00,74.0,20.0,29.76,NNW,337,0.0,0.0,13,0.00,,,0.00,,2013-04-24 06:21:00,
2013-04-23 23:32:00,74.0,20.0,29.76,NNW,338,0.0,0.0,13,0.00,,,0.00,,2013-04-24 06:32:00,
2013-04-23 23:51:00,73.0,19.0,29.76,NNW,338,0.0,0.0,13,0.00,,,0.00,,2013-04-24 06:51:00,